Regional Weather Roundup
Issued by NWS

Home | Current Version | Previous Version | Text Only | Print | Product List | Glossary On
Versions: 1 2 3 4 5 6 7 8 9 10 11 12 13 14 15 16 17 18 19 20 21 22 23 24 25 26 27
000
ASUS45 KBOU 170507
RWRCO

WEATHER ROUNDUP FOR COLORADO
NATIONAL WEATHER SERVICE DENVER/BOULDER CO
1100 PM MDT WED AUG 16 2017

NOTE: "FAIR" INDICATES FEW OR NO CLOUDS BELOW 12000 FEET WITH NO
SIGNIFICANT WEATHER AND/OR OBSTRUCTIONS TO VISIBILITY.

COZ001>005-013-030-031-170600-
...NORTHWEST COLORADO...

CITY           SKY/WX    TMP DP  RH WIND       PRES   REMARKS
CRAIG          FAIR      51  42  71 CALM      30.21R
HAYDEN         FAIR      54  36  50 E7        30.25S
MEEKER         FAIR      52  41  66 NE6       30.22R
RABBIT EARS PA FAIR      46  32  57 W9        30.48S
STEAMBOAT SPGS FAIR      53  40  63 CALM      30.26R
WALDEN         FAIR      41  37  87 SE6       30.36R
$$

COZ006>008-011-170600-
...WEST CENTRAL VALLEYS...

CITY           SKY/WX    TMP DP  RH WIND       PRES   REMARKS
GRAND JUNCTION FAIR      70  38  31 E5        30.08R
MONTROSE       FAIR      63  42  46 S7        30.18R
EAGLE          FAIR      59  38  45 E7        30.26R
RIFLE          FAIR      65  39  38 SE10      30.15R
DELTA          FAIR      67  37  32 NE3       30.13R
NUCLA          FAIR      64  28  25 E12       30.21R
$$

COZ017>023-064>068-170600-
...SOUTHWEST COLORADO...

CITY           SKY/WX    TMP DP  RH WIND       PRES   REMARKS
DURANGO        FAIR      56  28  34 N5        30.23R
CORTEZ         FAIR      57  30  35 NE9       30.18R
PAGOSA SPRINGS FAIR      54  27  35 NE3       30.31S
TELLURIDE      MOCLDY    54  32  43 CALM      30.43R
WOLF CREEK PAS FAIR      43  25  49 S8        30.63S
$$

COZ009-010-012-014-032>034-037-058>063-170600-
...CENTRAL COLORADO...

CITY           SKY/WX    TMP DP  RH WIND       PRES   REMARKS
ASPEN          FAIR      53  38  56 SW9       30.32R
BUENA VISTA    MOCLDY    54  38  54 CALM      30.34R
COPPER MTN     FAIR      46  28  49 W12       30.59S
BERTHOUD PASS  FAIR      36  32  87 NW21      30.60S
COTTONWOOD PAS MOCLDY    57  30  35 CALM      30.46R
GUNNISON       MOCLDY    55  37  50 CALM      30.31R
KREMMLING      FAIR      55  45  67 SE5       30.32S
LEADVILLE      FAIR      42  33  70 NE6       30.45R
MONARCH PASS   CLOUDY    45  36  70 NE3       30.69S
SALIDA         MOCLDY    63  46  52 SE12G21   30.37S
SUNLIGHT       MOCLDY    48  28  46 W5        30.54S
WILKERSON PASS MOCLDY    43  39  87 S7        30.57S
$$

COZ069>075-170600-
...SAN LUIS VALLEY/SANGRE DE CRISTO MOUNTAINS...

CITY           SKY/WX    TMP DP  RH WIND       PRES   REMARKS
ALAMOSA        CLOUDY    61  42  49 SE5       30.28R
DEL NORTE      MOCLDY    57  37  48 SW14      30.32S
LA VETA PASS   NOT AVBL
SAGUACHE       CLOUDY    61  34  36 N8        30.31S
$$

COZ035-036-038>040-170600-
...NORTHERN COLORADO FRONT RANGE...

CITY           SKY/WX    TMP DP  RH WIND       PRES   REMARKS
DENVER INTL AP FAIR      59  47  64 S10       30.18S
DMNS CITY PARK   N/A     62  48  60 E7        30.18S
AURORA         PTCLDY    59  45  61 SE6       30.20F
FRONT RANGE AP FAIR      59  52  77 S12       30.20S
ERIE MUNI ARPT FAIR      62  52  69 CALM      30.21F
BOULDER MUN AP FAIR      61  54  77 CALM      30.17S
CENTENNIAL     FAIR      56  47  71 S6        30.21S
BROOMFIELD     NOT AVBL
FORT COLLINS   FAIR      58  53  84 S7        30.16S
LONGMONT       FAIR      60  52  75 NW5       30.18S
$$

COZ041-046-047-076>085-087-088-170600-
...PIKES PEAK/PALMER DIVIDE AND SOUTHERN FOOTHILLS...

CITY           SKY/WX    TMP DP  RH WIND       PRES   REMARKS
COLO. SPRINGS  FAIR      62  52  69 N3        30.26S
A. F. ACADEMY  FAIR      53  52  95 N7        30.27S
SCHRIEVER AFB  FAIR      60  46  59 W14       30.26R
CHEYENNE MTN   FAIR      60  46  61 SW6       30.24S
ELLICOTT       FAIR     N/A N/A N/A S5        30.23F
FALCON         FAIR      53  46  78 W9        30.29F
FORT CARSON    FAIR      61  50  66 N7        30.23R
LIMON          FAIR      53  50  89 CALM      30.19S
MONUMENT HILL  MOCLDY    54  48  82 SW5       30.31S
CANON CITY     CLEAR     64  52  63 S3        30.20S
WALSENBURG     MOCLDY    64  50  59 CALM      30.24S
TRINIDAD       FAIR      63  50  62 E5        30.21R
$$

COZ042>045-048>051-090-091-170600-
...NORTHEAST COLORADO...

CITY           SKY/WX    TMP DP  RH WIND       PRES   REMARKS
GREELEY ARPT   FAIR      58  55  90 E3        30.15S
AKRON          FAIR      60  51  72 SE5       30.14F
BURLINGTON     FAIR      57  54  89 SW5       30.12R
WRAY           NOT AVBL
YUMA           FAIR      54  52  94 CALM      30.11F
STERLING       FAIR      59  54  82 CALM      30.10S
HOLYOKE        FAIR      59  54  82 W5        30.10R
FORT MORGAN    FAIR      58  50  74 E6        30.14F
$$

COZ086-089-092>099-170600-
...SOUTHEAST COLORADO...

CITY           SKY/WX    TMP DP  RH WIND       PRES   REMARKS
PUEBLO         CLOUDY    68  51  54 SW3       30.16R
LA JUNTA       FAIR      66  50  56 NE3       30.13R
LAMAR          FAIR      63  55  75 CALM      30.08R
SPRINGFIELD      N/A     60  56  86 N3        30.13R
$$




USA.gov is the U.S. government's official web portal to all federal, state and local government web resources and services.